Wind_Speed
3 3 5 7 9 10 10 10 10 10 10 10 14 16 15 13 11 9 6 3 1 5 9 18 15 11 7 4 11 10 15 17 15 14 14 10 13 14 14 17 10 7 5 13 17
3 3 4 5 6 8 11 12 12 12 11 11 11 14 16 16 14 12 12 6 4 3 8 12 12 20 5 4 22 18 15 15 16 13 13 12 13 14 13 13 9 10 19 14 19
5 4 4 5 5 6 8 10 12 13 13 12 11 11 14 16 15 13 13 11 7 1 5 9 5 23 7 11 16 12 16 12 15 15 12 14 11 11 7 9 13 22 20 16 20
5 5 4 5 5 6 7 7 9 12 14 14 13 12 12 13 7 17 16 14 11 6 3 7 12 20 7 14 9 12 12 12 14 13 12 11 13 6 9 9 15 19 19 20 20
6 5 5 5 5 6 7 8 8 9 11 15 15 13 12 14 15 17 17 15 13 10 5 8 13 7 8 3 8 10 11 11 12 12 12 12 8 9 9 12 17 20 20 20 18
8 7 6 6 6 7 7 7 8 9 9 11 15 15 15 14 22 27 11 18 15 13 8 8 9 3 4 8 10 10 11 11 12 10 10 8 11 9 11 14 19 21 19 18 17
8 8 8 8 7 7 7 8 7 8 10 10 11 16 18 17 24 26 21 13 18 15 12 6 9 6 6 4 6 11 12 13 11 10 10 8 5 9 14 16 18 18 18 16 16
9 8 8 8 7 7 7 7 8 8 8 9 10 12 16 21 23 16 16 21 20 17 17 11 10 9 3 3 7 13 14 13 11 10 10 8 13 11 14 17 18 17 16 15 16
12 11 9 8 8 8 8 7 8 8 8 7 9 9 8 21 20 17 15 17 16 21 20 18 12 9 10 6 3 3 19 13 9 7 10 9 14 14 15 15 17 17 17 16 16
14 14 11 9 9 8 7 7 7 8 8 7 6 3 7 8 9 12 16 15 12 15 18 18 16 13 11 7 15 20 20 8 11 9 11 8 13 17 17 16 16 17 17 17 17
14 14 13 11 10 9 8 8 7 10 9 11 7 10 7 8 20 16 14 16 13 13 20 18 19 20 14 15 8 23 14 12 5 7 10 11 16 19 19 18 17 17 18 18 18
14 14 14 11 11 10 9 9 7 10 12 12 14 16 18 12 9 12 16 17 16 18 16 19 26 19 15 12 13 6 18 13 3 4 5 9 15 17 16 16 16 17 18 19 19
14 14 13 11 11 9 9 9 8 10 16 8 10 12 11 17 13 10 17 18 17 18 19 22 22 16 18 16 14 14 12 7 15 3 7 6 7 20 11 14 16 15 17 18 20
15 14 13 10 9 7 9 7 6 9 10 8 8 6 11 10 14 15 17 19 18 19 18 21 20 20 15 20 17 20 12 10 5 7 13 10 10 26 17 15 15 16 19 18 19
13 13 13 11 9 8 7 6 4 4 6 11 8 10 6 10 1 15 16 18 21 17 18 20 20 21 17 18 15 18 10 9 9 13 14 18 13 7 10 18 16 19 21 20 20
12 11 11 11 9 9 6 5 3 3 10 6 7 5 10 14 7 11 15 17 18 18 17 20 14 18 21 18 17 15 17 14 13 17 20 22 14 15 15 16 22 23 25 23 23
12 11 11 10 10 7 6 6 3 11 2 8 5 6 8 9 14 12 10 17 23 21 20 19 22 14 16 14 17 18 19 18 14 15 16 17 9 11 18 16 11 24 25 25 25
13 11 11 10 10 9 8 5 10 11 7 3 4 4 8 11 9 14 11 18 21 20 20 21 20 23 16 20 17 20 22 19 12 13 14 8 19 14 8 15 9 9 25 25 24
14 12 11 10 10 11 12 13 15 9 5 4 6 8 10 9 9 12 14 16 18 23 24 18 20 19 23 18 18 17 22 20 24 28 26 3 4 4 20 22 14 7 26 23 24
9 10 8 10 10 14 15 20 16 12 8 4 10 10 12 11 11 11 13 13 16 20 21 22 19 13 22 16 17 21 18 17 19 15 15 8 12 9 28 22 12 11 20 19 20
5 3 10 7 10 16 18 16 11 13 10 10 10 13 11 6 10 11 13 11 12 17 18 20 18 12 16 17 18 18 22 17 20 22 14 11 8 15 11 2 10 15 16 20 21
3 4 18 11 12 14 18 16 12 11 9 12 10 9 9 9 9 10 14 11 13 12 20 20 20 19 18 17 15 19 19 21 22 16 21 16 10 4 9 14 7 10 12 14 17
7 10 14 12 12 13 13 17 16 13 13 12 13 11 9 13 8 10 12 6 7 9 14 19 20 22 17 19 16 18 21 22 22 24 19 17 8 9 7 7 10 11 17 17 16
6 0 8 11 16 15 13 18 19 15 16 13 14 13 11 12 11 12 9 8 8 7 12 13 20 20 22 17 20 20 20 18 21 23 22 19 14 15 16 14 14 13 14 17 20
9 6 7 7 8 17 14 13 15 15 14 16 15 16 12 12 13 15 10 8 6 11 10 17 17 19 22 15 8 21 19 20 25 23 24 16 4 9 18 23 14 11 14 17 17
15 12 17 20 8 10 16 18 15 13 15 12 14 13 15 14 10 13 6 8 4 10 11 12 17 15 19 18 9 11 14 17 18 22 21 17 2 13 21 27 7 16 17 19 17
21 25 17 17 10 13 13 15 17 15 15 16 11 16 11 12 11 13 12 10 10 6 10 13 16 16 19 17 12 15 17 16 17 18 17 16 10 13 12 11 19 24 22 20 23
Wind_Direction
337 316 290 276 270 263 258 251 249 250 250 244 237 233 225 224 226 219 225 219 276 4 18 84 21 355 271 155 28 80 88 78 92 100 107 104 109 120 125 127 127 174 221 150 145
321 315 312 302 289 275 264 256 250 249 248 246 240 235 229 222 224 226 237 228 240 351 355 21 321 282 1 211 67 69 97 81 100 104 103 106 110 115 122 146 148 145 159 158 149
334 324 311 301 296 289 280 270 259 250 250 246 241 236 231 224 226 230 236 234 235 224 348 83 297 5 8 59 74 89 96 106 94 101 104 98 114 135 152 142 159 160 164 155 155
325 327 329 317 303 288 279 276 271 260 249 247 242 236 229 219 205 238 239 228 225 222 294 14 321 268 274 82 111 100 101 101 117 99 97 93 97 97 89 150 162 169 164 156 160
313 320 320 319 319 303 287 279 272 266 258 247 243 235 227 217 211 244 229 225 223 222 259 344 344 26 68 59 157 133 124 115 112 109 107 101 111 96 113 142 162 166 165 164 163
304 305 306 311 317 309 303 296 279 269 264 253 241 235 226 213 227 247 238 220 220 223 226 310 327 343 351 31 108 144 146 136 124 128 123 115 125 105 126 142 154 161 164 169 169
304 302 302 300 302 302 304 296 290 279 268 263 251 236 231 211 232 236 222 218 218 221 250 274 268 280 331 102 163 168 153 147 142 139 121 129 140 140 143 147 154 161 165 171 174
307 312 309 299 296 289 290 294 287 280 277 266 262 249 226 231 238 237 232 221 217 226 223 231 254 280 277 188 186 214 131 159 154 153 169 93 148 152 153 153 160 166 170 177 179
293 300 310 318 312 290 285 288 290 276 271 273 262 255 238 253 251 241 228 216 231 228 229 233 237 255 254 237 221 186 209 173 145 177 155 179 153 166 165 168 169 173 175 179 182
285 286 289 299 309 311 289 283 287 284 263 257 261 273 244 296 257 217 225 202 223 227 233 239 241 245 252 203 71 288 283 182 153 168 196 190 166 166 173 180 182 180 182 183 184
281 282 285 284 289 301 309 287 283 309 258 204 239 235 269 228 227 234 218 213 204 222 225 230 232 233 238 208 239 219 238 205 165 207 212 196 176 178 177 184 189 190 192 188 186
284 282 281 281 280 285 298 297 299 282 281 263 244 242 218 246 241 259 204 209 207 215 222 224 232 231 240 210 226 205 246 76 177 244 211 172 195 177 182 191 198 197 206 196 191
278 279 281 282 281 278 285 299 298 299 299 276 242 234 252 242 240 220 204 207 209 216 219 225 228 234 236 238 245 237 257 50 246 228 273 264 108 153 172 225 209 207 216 210 204
273 271 271 275 274 281 274 287 297 307 296 241 218 245 232 219 244 191 227 207 212 223 223 230 236 234 238 239 237 255 234 245 248 283 276 211 214 154 161 191 220 218 218 217 212
271 267 263 262 258 249 268 280 284 304 292 159 180 249 229 197 85 197 205 206 212 216 224 231 230 239 239 239 241 250 250 278 293 274 269 254 250 110 186 178 228 229 221 218 217
275 269 262 253 251 245 246 241 227 272 251 187 223 260 199 203 211 172 204 210 213 223 232 234 236 232 237 241 250 237 258 266 264 273 271 269 243 155 160 219 225 221 212 215 211
276 270 263 248 245 234 219 191 249 238 146 233 246 203 216 216 212 213 221 208 204 212 227 229 231 232 235 238 231 232 243 255 254 246 251 274 26 188 209 223 150 179 190 206 202
275 265 259 247 232 216 195 182 240 245 277 207 238 238 222 205 219 214 218 213 214 217 227 220 223 228 227 227 229 226 233 239 243 253 260 2 136 184 26 143 149 188 185 193 195
270 264 256 244 223 207 195 219 222 256 302 278 232 243 223 225 240 211 224 225 221 217 228 236 231 228 218 226 222 234 227 240 265 277 282 147 145 167 177 169 153 163 175 179 193
277 261 255 237 222 205 209 228 241 296 279 276 259 233 241 209 210 236 222 231 228 222 225 243 277 241 203 212 229 229 232 230 232 267 284 195 195 210 192 194 165 153 173 173 185
281 85 226 250 221 213 222 239 250 269 261 248 254 281 248 303 225 232 241 241 227 225 224 231 245 245 196 204 224 217 237 249 266 231 252 270 104 148 134 294 185 156 174 174 183
236 138 260 260 227 228 234 238 247 249 255 240 259 268 274 278 253 241 268 242 227 221 226 222 232 245 238 222 224 231 221 230 248 255 270 290 270 148 160 189 147 156 162 181 196
215 197 280 235 220 229 249 240 248 251 242 245 243 248 253 257 272 267 260 236 204 241 226 216 225 250 255 212 212 227 233 231 237 255 242 268 255 155 156 152 179 190 170 179 177
223 246 244 256 228 247 252 238 241 248 235 237 240 235 249 246 246 271 234 207 222 239 242 217 221 225 240 231 217 207 226 241 247 251 252 246 270 167 188 161 166 168 173 190 192
201 179 247 222 253 242 242 252 235 237 239 230 238 232 236 244 243 236 256 220 252 219 235 219 231 234 254 264 270 220 218 225 237 252 265 266 33 355 166 141 142 168 180 179 168
199 240 228 207 244 240 230 236 236 231 230 236 233 232 234 242 281 271 308 217 241 221 206 210 238 252 254 251 257 259 256 221 228 231 250 262 179 178 149 160 249 176 191 182 159
225 224 235 216 252 246 238 238 234 233 227 230 241 231 235 229 270 253 258 275 210 282 220 224 231 233 239 246 242 232 238 244 227 214 226 240 156 130 139 144 152 181 186 181 177
Height
3180 3179 3178 3177 3177 3176 3177 3177 3177 3177 3177 3178 3179 3181 3183 3184 3185 3186 3186 3186 3185 3184 3184 3182 3180 3178 3160 3170 3174 3176 3179 3183 3184 3186 3188 3189 3190 3192 3193 3194 3197 3196 3193 3195 3196
3180 3179 3178 3177 3176 3175 3175 3175 3176 3175 3176 3176 3177 3178 3181 3183 3184 3185 3186 3186 3186 3185 3185 3183 3187 3176 3169 3173 3177 3181 3184 3186 3186 3188 3189 3190 3191 3192 3195 3197 3198 3197 3196 3196 3198
3180 3179 3178 3177 3176 3175 3174 3173 3173 3174 3174 3175 3175 3177 3178 3181 3183 3184 3184 3185 3186 3186 3185 3185 3187 3179 3178 3182 3184 3188 3189 3189 3188 3189 3190 3191 3193 3195 3195 3197 3198 3197 3195 3197 3200
3180 3179 3178 3176 3175 3174 3174 3173 3172 3172 3172 3173 3174 3175 3176 3179 3185 3180 3183 3184 3185 3186 3185 3184 3185 3181 3175 3185 3191 3190 3190 3191 3190 3191 3192 3193 3194 3196 3197 3197 3198 3198 3198 3199 3203
3179 3178 3177 3176 3175 3173 3173 3172 3171 3170 3170 3171 3172 3173 3175 3178 3180 3177 3180 3183 3184 3185 3185 3183 3185 3185 3182 3185 3189 3192 3191 3191 3191 3192 3192 3193 3194 3196 3197 3197 3198 3199 3200 3203 3206
3178 3177 3176 3175 3174 3173 3172 3171 3170 3169 3169 3169 3170 3171 3173 3176 3174 3175 3180 3181 3184 3185 3185 3186 3188 3188 3185 3187 3189 3189 3190 3191 3191 3191 3192 3195 3195 3195 3197 3197 3198 3199 3202 3205 3208
3177 3176 3175 3174 3173 3172 3171 3170 3169 3168 3168 3168 3168 3168 3170 3174 3171 3173 3178 3180 3182 3184 3186 3188 3189 3188 3189 3188 3190 3188 3188 3190 3190 3190 3198 3201 3201 3197 3196 3197 3199 3201 3203 3206 3209
3175 3175 3174 3172 3172 3171 3170 3169 3168 3167 3166 3166 3166 3166 3167 3166 3168 3172 3175 3178 3180 3183 3183 3186 3187 3188 3188 3189 3189 3184 3180 3185 3188 3190 3195 3193 3198 3199 3197 3197 3199 3202 3205 3208 3210
3174 3173 3172 3171 3170 3169 3168 3167 3166 3166 3165 3165 3165 3165 3167 3165 3168 3170 3172 3176 3179 3181 3182 3184 3186 3189 3189 3192 3188 3189 3189 3188 3188 3189 3190 3194 3196 3195 3197 3199 3200 3202 3204 3207 3209
3172 3171 3170 3169 3169 3167 3167 3166 3165 3164 3164 3164 3164 3167 3166 3167 3168 3167 3170 3174 3179 3180 3182 3183 3186 3188 3188 3188 3200 3198 3190 3187 3186 3189 3187 3187 3190 3192 3196 3199 3201 3202 3204 3205 3207
3169 3168 3168 3167 3167 3166 3166 3165 3166 3163 3162 3162 3164 3164 3166 3166 3163 3165 3169 3171 3176 3179 3180 3182 3184 3184 3184 3182 3182 3186 3183 3182 3186 3185 3187 3187 3187 3190 3193 3198 3200 3202 3203 3204 3207
3166 3165 3165 3165 3165 3165 3164 3163 3162 3162 3159 3158 3158 3159 3162 3162 3162 3162 3167 3171 3174 3177 3179 3181 3178 3182 3183 3181 3184 3181 3181 3183 3186 3186 3186 3182 3185 3192 3199 3202 3202 3203 3204 3205 3206
3163 3163 3162 3163 3163 3163 3162 3162 3161 3160 3157 3155 3155 3157 3158 3159 3159 3164 3166 3168 3172 3175 3176 3177 3177 3179 3181 3182 3181 3182 3182 3181 3185 3185 3183 3183 3187 3193 3192 3208 3205 3203 3205 3206 3207
3159 3159 3160 3161 3163 3161 3161 3161 3160 3159 3156 3155 3154 3154 3155 3156 3157 3159 3163 3168 3171 3172 3174 3175 3175 3176 3177 3178 3180 3177 3178 3179 3180 3182 3181 3182 3181 3187 3190 3199 3202 3202 3204 3206 3207
3156 3156 3157 3158 3159 3160 3160 3160 3160 3160 3158 3154 3154 3152 3154 3155 3158 3158 3162 3164 3167 3170 3173 3172 3173 3173 3175 3176 3177 3177 3177 3178 3178 3178 3179 3177 3176 3184 3184 3186 3196 3199 3203 3204 3205
3153 3153 3153 3155 3156 3158 3158 3159 3160 3164 3153 3151 3152 3151 3153 3153 3157 3158 3160 3162 3167 3169 3169 3169 3171 3172 3174 3175 3176 3177 3177 3177 3178 3177 3174 3170 3169 3182 3181 3180 3188 3193 3197 3201 3203
3149 3150 3150 3151 3153 3155 3157 3159 3163 3157 3150 3149 3149 3151 3152 3153 3155 3156 3158 3159 3162 3166 3166 3168 3167 3170 3171 3174 3175 3177 3177 3176 3175 3171 3166 3162 3164 3174 3170 3174 3172 3175 3186 3195 3200
3146 3147 3147 3148 3150 3153 3155 3159 3159 3149 3146 3148 3150 3150 3151 3151 3153 3154 3156 3158 3160 3162 3163 3163 3164 3167 3169 3171 3172 3173 3174 3173 3172 3164 3158 3161 3164 3175 3185 3174 3174 3176 3182 3190 3195
3142 3143 3144 3146 3147 3150 3153 3156 3152 3149 3148 3147 3148 3149 3148 3149 3151 3151 3153 3155 3156 3159 3160 3158 3158 3159 3163 3167 3170 3169 3169 3172 3169 3164 3159 3160 3164 3164 3173 3173 3172 3177 3182 3187 3191
3139 3140 3141 3142 3145 3147 3150 3149 3148 3149 3149 3150 3149 3146 3145 3145 3148 3149 3149 3151 3152 3155 3157 3156 3156 3152 3156 3163 3166 3166 3168 3168 3168 3168 3163 3161 3167 3163 3165 3169 3172 3177 3180 3185 3190
3138 3140 3139 3141 3143 3145 3145 3146 3148 3149 3149 3151 3148 3146 3144 3144 3144 3146 3146 3148 3149 3151 3154 3156 3156 3155 3155 3158 3162 3165 3165 3166 3164 3163 3160 3157 3160 3162 3168 3171 3171 3173 3178 3181 3185
3137 3140 3137 3140 3142 3142 3143 3145 3146 3147 3148 3148 3148 3146 3144 3143 3143 3144 3144 3144 3144 3149 3150 3154 3154 3153 3152 3155 3158 3160 3162 3164 3163 3162 3157 3156 3163 3158 3162 3169 3170 3173 3177 3178 3179
3135 3137 3136 3136 3139 3141 3142 3142 3144 3144 3145 3146 3147 3147 3145 3145 3146 3144 3143 3143 3144 3147 3148 3150 3153 3151 3149 3152 3154 3157 3158 3158 3159 3157 3157 3156 3157 3161 3165 3166 3170 3173 3176 3178 3180
3133 3137 3137 3134 3134 3137 3137 3140 3140 3142 3142 3144 3145 3145 3145 3145 3145 3144 3142 3142 3144 3146 3145 3147 3148 3150 3145 3145 3146 3151 3155 3156 3155 3154 3153 3153 3154 3155 3159 3161 3169 3171 3175 3178 3181
3130 3134 3133 3134 3134 3135 3136 3136 3137 3138 3139 3141 3142 3143 3145 3144 3142 3142 3141 3140 3142 3143 3145 3147 3147 3146 3143 3144 3144 3144 3147 3152 3154 3153 3151 3152 3154 3155 3154 3158 3167 3170 3175 3177 3180
3126 3126 3125 3125 3130 3132 3132 3134 3135 3135 3137 3137 3139 3140 3142 3141 3141 3141 3139 3139 3140 3142 3143 3145 3145 3145 3143 3142 3142 3143 3144 3145 3148 3151 3151 3152 3153 3150 3156 3157 3162 3170 3173 3176 3179
3117 3118 3121 3123 3127 3129 3130 3131 3132 3134 3134 3135 3137 3138 3138 3138 3135 3137 3136 3137 3140 3139 3140 3142 3143 3144 3143 3141 3140 3143 3143 3143 3143 3146 3149 3151 3152 3150 3154 3156 3158 3165 3170 3173 3176